Fox Island, WA

1:48 PM PST on February 06, 2016 (GMT -0800)
Tacoma Narrows

Weather History for KTIW - May, 2013

Change the Weather History Date:

Thursday, May 16, 2013

  Actual Average Record
Temperature  
Mean Temperature 60 °F -  
Max Temperature 69 °F 61 °F 82 °F (2006)
Min Temperature 51 °F 45 °F 41 °F (2003)
Degree Days  
Heating Degree Days 6    
Growing Degree Days 10 (Base 50)    
Moisture  
Dew Point 49 °F    
Average Humidity 77    
Maximum Humidity 94    
Minimum Humidity 42    
Precipitation  
Precipitation 0.00 in - - ()
Sea Level Pressure  
Sea Level Pressure 29.98 in    
Wind  
Wind Speed 1 mph (SW)    
Max Wind Speed 13 mph    
Max Gust Speed 18 mph    
Visibility 10 miles    
Events      
Averages and records for this station are not official NWS values.
T = Trace of Precipitation, MM = Missing Value Source: NWS Daily Summary

Daily Weather History Graph

Daily Weather History Graph

Search for Another Location

Airport or City:

Trip Planner

Search our weather history database for the weather conditions in past years. The results will help you decide how hot, cold, wet, or windy it might be!

Date:

Astronomy

May. 16, 2013 Rise Set
Actual Time 5:32 AM PDT 8:41 PM PDT
Civil Twilight 4:55 AM PDT 9:18 PM PDT
Nautical Twilight 4:08 AM PDT 10:06 PM PDT
Astronomical Twilight 3:09 AM PDT 11:05 PM PDT
Moon 11:19 AM PDT (5/16) 12:58 AM PDT (5/16)
Length of Visible Light 16h 22m
Length of Day
15h 09m
Waxing Crescent, 36% of the Moon is Illuminated
May 16
Waxing Crescent
May 17
First Quarter
May 24
Full
May 31
Last Quarter
Jun 8
New

Hourly Weather History & Observations

Time (PDT) Temp. Dew Point Humidity Pressure Visibility Wind Dir Wind Speed Gust Speed Precip Events Conditions
12:29 AM 53.6 °F 51.8 °F 94% 30.02 in 10.0 mi Calm Calm - N/A   Overcast
12:36 AM 53.6 °F 51.8 °F 94% 30.03 in 10.0 mi Calm Calm - N/A   Overcast
12:45 AM 53.6 °F 51.8 °F 94% 30.02 in 9.0 mi Calm Calm - N/A   Overcast
12:53 AM 53.1 °F 51.1 °F 93% 30.03 in 8.0 mi Calm Calm - N/A   Overcast
1:03 AM 53.6 °F 51.8 °F 94% 30.03 in 9.0 mi Calm Calm - N/A   Overcast
1:26 AM 53.6 °F 51.8 °F 94% 30.02 in 9.0 mi Calm Calm - N/A   Overcast
1:36 AM 53.6 °F 51.8 °F 94% 30.02 in 10.0 mi Calm Calm - N/A   Overcast
1:51 AM 53.6 °F 50.0 °F 88% 30.01 in 10.0 mi Calm Calm - N/A   Overcast
1:53 AM 53.1 °F 50.0 °F 89% 30.01 in 10.0 mi Calm Calm - N/A   Overcast
2:53 AM 53.1 °F 50.0 °F 89% 30.01 in 10.0 mi Calm Calm - N/A   Overcast
3:15 AM 53.6 °F 50.0 °F 88% 30.00 in 10.0 mi Calm Calm - N/A   Overcast
3:24 AM 53.6 °F 50.0 °F 88% 30.00 in 10.0 mi Calm Calm - N/A   Overcast
3:53 AM 53.1 °F 50.0 °F 89% 29.99 in 10.0 mi Calm Calm - N/A   Overcast
4:53 AM 51.1 °F 48.9 °F 92% 29.99 in 9.0 mi Calm Calm - N/A   Partly Cloudy
5:45 AM 51.8 °F 48.2 °F 88% 29.98 in 4.0 mi Calm Calm - N/A   Mostly Cloudy
5:53 AM 51.1 °F 48.9 °F 92% 29.99 in 4.0 mi Calm Calm - N/A   Mostly Cloudy
6:37 AM 51.8 °F 50.0 °F 94% 29.98 in 10.0 mi Calm Calm - N/A   Scattered Clouds
6:53 AM 54.0 °F 50.0 °F 86% 29.99 in 10.0 mi Calm Calm - N/A   Scattered Clouds
7:53 AM 55.9 °F 50.0 °F 80% 29.99 in 10.0 mi Calm Calm - N/A   Partly Cloudy
8:53 AM 59.0 °F 51.1 °F 75% 29.98 in 10.0 mi Variable 4.6 mph - N/A   Scattered Clouds
9:35 AM 59.0 °F 51.8 °F 77% 29.98 in 10.0 mi WSW 3.5 mph - N/A   Mostly Cloudy
9:53 AM 60.1 °F 50.0 °F 69% 29.98 in 10.0 mi WSW 3.5 mph - N/A   Mostly Cloudy
10:53 AM 60.1 °F 48.0 °F 64% 29.97 in 10.0 mi Calm Calm - N/A   Mostly Cloudy
11:53 AM 63.0 °F 48.9 °F 60% 29.96 in 10.0 mi WSW 3.5 mph - N/A   Scattered Clouds
12:53 PM 64.9 °F 48.9 °F 56% 29.95 in 10.0 mi Variable 4.6 mph - N/A   Scattered Clouds
1:53 PM 64.0 °F 46.9 °F 54% 29.93 in 10.0 mi Calm Calm - N/A   Scattered Clouds
2:53 PM 66.9 °F 45.0 °F 45% 29.91 in 10.0 mi SE 4.6 mph - N/A   Scattered Clouds
3:53 PM 68.0 °F 46.0 °F 45% 29.90 in 10.0 mi Variable 5.8 mph - N/A   Scattered Clouds
4:53 PM 66.9 °F 45.0 °F 45% 29.88 in 10.0 mi Variable 3.5 mph - N/A   Scattered Clouds
5:53 PM 66.9 °F 43.0 °F 42% 29.88 in 10.0 mi NNE 4.6 mph - N/A   Scattered Clouds
6:53 PM 63.0 °F 48.0 °F 58% 29.91 in 10.0 mi SW 12.7 mph 18.4 mph N/A   Mostly Cloudy
7:53 PM 59.0 °F 50.0 °F 72% 29.93 in 10.0 mi SSW 8.1 mph - N/A   Mostly Cloudy
8:53 PM 57.0 °F 48.0 °F 72% 29.95 in 10.0 mi SW 8.1 mph - N/A   Overcast
9:53 PM 55.0 °F 46.9 °F 74% 29.97 in 10.0 mi SSW 8.1 mph - N/A   Overcast
10:53 PM 54.0 °F 46.0 °F 75% 29.97 in 10.0 mi SW 6.9 mph - 0.00 in   Overcast
11:53 PM 54.0 °F 46.9 °F 77% 29.98 in 10.0 mi WSW 8.1 mph - N/A   Overcast